CW4845 Weather Reports


time (UTC)temp
F
wind
direction
speed
knots
gust
knots
rain 1hr
in
rain 24hr
in
rain mn
in
humidity
%
barometer
mb
20260504194308 60 161 13.9 20.0 0.00 0.00 0.00 74 1009.9
20260504193757 61 181 13.0 19.1 0.00 0.00 0.00 71 1010.1
20260504193255 62 160 13.0 26.1 0.00 0.00 0.00 70 1010.1
20260504192957 63 136 12.2 26.1 0.00 0.00 0.00 67 1010.1
20260504192211 62 197 12.2 21.7 0.00 0.00 0.00 69 1010.2
20260504191709 64 188 13.0 26.1 0.00 0.00 0.00 66 1010.2
20260504191416 64 191 13.0 26.1 0.00 0.00 0.00 64 1010.2
20260504190657 63 153 13.0 20.9 0.00 0.00 0.00 67 1010.5
20260504190129 64 188 13.9 22.6 0.00 0.00 0.00 65 1010.5
20260504185627 64 176 13.9 22.6 0.00 0.00 0.00 65 1010.5
20260504185128 64 190 14.8 25.2 0.00 0.00 0.00 66 1010.5
20260504184615 63 185 15.6 26.1 0.00 0.00 0.00 67 1010.5
20260504184116 64 176 15.6 26.1 0.00 0.00 0.00 66 1010.5
20260504183615 64 176 13.9 23.5 0.00 0.00 0.00 67 1010.7
20260504183324 64 163 13.9 22.6 0.00 0.00 0.00 68 1010.7
20260504182549 63 178 13.9 25.2 0.00 0.00 0.00 69 1010.7
20260504182051 64 170 13.9 24.3 0.00 0.00 0.00 67 1010.8
20260504181542 64 207 14.8 21.7 0.00 0.00 0.00 66 1010.8
20260504181044 64 178 14.8 23.5 0.00 0.00 0.00 65 1010.8
20260504180527 64 185 14.8 24.3 0.00 0.00 0.00 65 1011.1
20260504180030 64 186 14.8 24.3 0.00 0.00 0.00 66 1011.1
20260504175510 63 199 13.0 26.9 0.00 0.00 0.00 67 1011.2
20260504175005 63 146 13.0 26.9 0.00 0.00 0.00 66 1011.2
20260504174507 64 175 14.8 24.3 0.00 0.00 0.00 66 1011.2
20260504173950 64 182 15.6 24.3 0.00 0.00 0.00 67 1011.2
20260504173423 63 170 13.9 23.5 0.00 0.00 0.00 68 1011.2
20260504172921 63 162 11.3 17.4 0.00 0.00 0.00 68 1011.2
20260504172423 63 173 10.4 16.5 0.00 0.00 0.00 68 1011.7
20260504171911 64 176 11.3 20.0 0.00 0.00 0.00 65 1011.7
20260504171339 64 199 13.0 21.7 0.00 0.00 0.00 64 1011.7
20260504170837 64 190 13.9 23.5 0.00 0.00 0.00 66 1011.8
20260504170338 64 195 13.9 26.1 0.00 0.00 0.00 64 1011.8
20260504150714 63 171 11.3 21.7 0.00 0.00 0.00 63 1012.8
20260504141254 62 182 11.3 21.7 0.00 0.00 0.00 62 1013.0
20260504140754 62 201 10.4 17.4 0.00 0.00 0.00 61 1013.3
20260504140224 62 175 10.4 18.2 0.00 0.00 0.00 61 1013.3
20260504130611 61 204 10.4 14.8 0.00 0.00 0.00 58 1013.8
20260504130319 60 210 11.3 15.6 0.00 0.00 0.00 59 1013.8
20260504110240 52 204 11.3 17.4 0.00 0.00 0.00 74 1014.4
20260504100515 52 232 13.0 18.2 0.00 0.00 0.00 70 1014.1
20260504081719 53 242 11.3 20.0 0.00 0.00 0.00 63 1013.9
20260504081220 53 219 11.3 17.4 0.00 0.00 0.00 61 1013.9
20260504080705 54 219 12.2 17.4 0.00 0.00 0.00 60 1013.8
20260504080428 54 233 12.2 16.5 0.00 0.00 0.00 59 1013.8
20260504060200 54 230 10.4 13.9 0.00 0.00 0.00 57 1013.3
20260504050554 54 240 10.4 13.9 0.00 0.00 0.00 55 1013.3
20260504045532 54 217 10.4 14.8 0.00 0.00 0.00 54 1013.3
20260504045020 54 234 10.4 14.8 0.00 0.00 0.00 53 1013.1
20260504044519 54 231 10.4 14.8 0.00 0.00 0.00 54 1013.1
20260504043958 54 232 10.4 14.8 0.00 0.00 0.00 53 1013.1
20260504043953 54 238 10.4 14.8 0.00 0.00 0.00 54 1012.9
20260504042931 54 219 10.4 14.8 0.00 0.00 0.00 53 1012.9
20260504042429 54 253 11.3 15.6 0.00 0.00 0.00 53 1012.9
20260504042152 54 230 11.3 15.6 0.00 0.00 0.00 53 1012.9
20260504041429 54 236 10.4 14.8 0.00 0.00 0.00 54 1012.9
20260504040929 54 236 9.6 14.8 0.00 0.00 0.00 53 1012.8
20260504040859 54 214 9.6 13.9 0.00 0.00 0.00 53 1012.8
20260504035919 54 230 9.6 14.8 0.00 0.00 0.00 53 1012.8
20260504035418 54 238 9.6 14.8 0.00 0.00 0.00 53 1012.7
20260504034919 54 235 9.6 13.9 0.00 0.00 0.00 53 1012.7
20260504034628 54 225 9.6 13.9 0.00 0.00 0.00 53 1012.7
20260504033908 54 214 9.6 13.9 0.00 0.00 0.00 52 1012.7
20260504033355 54 229 10.4 15.6 0.00 0.00 0.00 51 1012.7
20260504032852 54 229 10.4 15.6 0.00 0.00 0.00 52 1012.7
20260504032354 54 226 10.4 14.8 0.00 0.00 0.00 52 1012.7
20260504031851 54 206 9.6 14.8 0.00 0.00 0.00 51 1012.7
20260504031352 54 217 9.6 13.9 0.00 0.00 0.00 52 1012.7
20260504030837 54 224 9.6 13.9 0.00 0.00 0.00 52 1012.6
20260504030336 54 224 8.7 13.9 0.00 0.00 0.00 52 1012.6
20260504025837 55 232 8.7 13.0 0.00 0.00 0.00 52 1012.6
20260504025307 55 225 8.7 11.3 0.00 0.00 0.00 52 1012.7
20260504024804 55 239 8.7 12.2 0.00 0.00 0.00 52 1012.7
20260504024306 55 241 8.7 13.0 0.00 0.00 0.00 51 1012.7
20260504023750 55 217 8.7 13.0 0.00 0.00 0.00 50 1012.7
20260504023225 55 237 9.6 13.9 0.00 0.00 0.00 50 1012.7
20260504022721 55 233 10.4 13.9 0.00 0.00 0.00 49 1012.7
20260504022218 55 229 8.7 13.0 0.00 0.00 0.00 49 1012.6
20260504021708 55 235 8.7 13.0 0.00 0.00 0.00 50 1012.6
20260504021145 56 231 8.7 12.2 0.00 0.00 0.00 51 1012.6
20260504020647 56 226 7.8 11.3 0.00 0.00 0.00 52 1012.6
20260504020127 56 236 8.7 12.2 0.00 0.00 0.00 51 1012.6
20260504015850 56 235 9.6 12.2 0.00 0.00 0.00 50 1012.6
20260504015106 56 248 8.7 12.2 0.00 0.00 0.00 50 1012.5
20260504014603 56 234 8.7 12.2 0.00 0.00 0.00 50 1012.5
20260504014058 56 220 8.7 12.2 0.00 0.00 0.00 50 1012.5
20260504013539 56 217 8.7 12.2 0.00 0.00 0.00 49 1012.3
20260504013042 56 230 8.7 12.2 0.00 0.00 0.00 49 1012.3
20260504012514 56 239 8.7 12.2 0.00 0.00 0.00 47 1012.3
20260504012012 57 219 8.7 12.2 0.00 0.00 0.00 48 1012.1
20260504011924 57 235 7.8 12.2 0.00 0.00 0.00 48 1012.1
20260504010940 57 226 7.8 11.3 0.00 0.00 0.00 49 1011.8
20260504010440 57 244 7.0 11.3 0.00 0.00 0.00 48 1011.8
20260504005914 57 215 7.0 10.4 0.00 0.00 0.00 49 1011.8
20260504005414 57 219 7.0 10.4 0.00 0.00 0.00 48 1011.8
20260504004852 57 228 6.1 10.4 0.00 0.00 0.00 48 1011.8
20260504004611 57 204 6.1 9.6 0.00 0.00 0.00 48 1011.8
20260504003848 58 218 7.0 10.4 0.00 0.00 0.00 47 1011.6
20260504003350 58 211 7.0 10.4 0.00 0.00 0.00 46 1011.6
20260504002838 58 230 7.8 10.4 0.00 0.00 0.00 45 1011.6
20260504002605 58 253 7.8 10.4 0.00 0.00 0.00 44 1011.3
20260504001836 58 242 7.0 10.4 0.00 0.00 0.00 44 1011.3
20260504001600 58 222 6.1 9.6 0.00 0.00 0.00 44 1011.3
20260504001049 58 222 6.1 9.6 0.00 0.00 0.00 42 1011.2
20260504000333 59 239 5.2 8.7 0.00 0.00 0.00 41 1011.2
20260503235814 59 226 5.2 8.7 0.00 0.00 0.00 44 1011.2
20260503235312 59 251 4.3 8.7 0.00 0.00 0.00 44 1011.2
20260503235036 59 250 5.2 8.7 0.00 0.00 0.00 42 1011.2
20260503234257 59 251 5.2 8.7 0.00 0.00 0.00 40 1011.2
20260503233754 59 242 5.2 8.7 0.00 0.00 0.00 38 1010.9
20260503233254 60 236 6.1 11.3 0.00 0.00 0.00 38 1010.9
20260503233003 60 290 6.1 11.3 0.00 0.00 0.00 37 1010.9
20260503232242 60 298 7.0 12.2 0.00 0.00 0.00 35 1011.0
20260503231727 60 270 7.0 13.0 0.00 0.00 0.00 35 1011.0
20260503231219 60 285 7.8 13.9 0.00 0.00 0.00 35 1011.0
20260503230713 60 295 9.6 13.9 0.00 0.00 0.00 34 1010.9
20260503230214 60 219 9.6 13.9 0.00 0.00 0.00 34 1010.9
20260503230123 60 289 11.3 18.2 0.00 0.00 0.00 33 1010.9
20260503225141 60 257 11.3 18.2 0.00 0.00 0.00 35 1010.7
20260503224642 60 265 9.6 14.8 0.00 0.00 0.00 34 1010.7
20260503224113 61 258 9.6 15.6 0.00 0.00 0.00 35 1010.7
20260503223610 61 292 11.3 18.2 0.00 0.00 0.00 34 1010.7
20260503223111 61 293 12.2 18.2 0.00 0.00 0.00 35 1010.7
20260503222550 61 302 12.2 17.4 0.00 0.00 0.00 34 1010.7
20260503222049 61 296 11.3 17.4 0.00 0.00 0.00 33 1010.7
20260503221815 61 298 13.9 22.6 0.00 0.00 0.00 35 1010.7
20260503221032 61 330 14.8 23.5 0.00 0.00 0.00 34 1010.7
20260503220527 61 246 13.0 23.5 0.00 0.00 0.00 33 1010.6
20260503220028 62 261 12.2 20.0 0.00 0.00 0.00 33 1010.6
20260503215506 61 252 13.0 20.0 0.00 0.00 0.00 33 1010.6
20260503215006 61 303 13.0 21.7 0.00 0.00 0.00 33 1010.5
20260503214705 61 286 13.0 21.7 0.00 0.00 0.00 33 1010.5
20260503213948 61 284 13.0 19.1 0.00 0.00 0.00 34 1010.5
20260503213447 62 299 13.0 18.2 0.00 0.00 0.00 32 1010.5
20260503212945 62 301 13.0 18.2 0.00 0.00 0.00 34 1010.5
20260503212441 62 280 12.2 20.9 0.00 0.00 0.00 34 1010.6
20260503211940 61 285 13.9 20.9 0.00 0.00 0.00 35 1010.6
20260503211437 61 315 13.9 20.9 0.00 0.00 0.00 34 1010.6
20260503210914 61 291 13.9 24.3 0.00 0.00 0.00 36 1010.5
20260503210417 61 269 13.0 24.3 0.00 0.00 0.00 35 1010.5
20260503205851 61 284 13.0 20.9 0.00 0.00 0.00 32 1010.5
20260503205323 61 297 15.6 22.6 0.00 0.00 0.00 32 1010.4
20260503205049 61 270 13.9 22.6 0.00 0.00 0.00 34 1010.4
20260503204253 61 301 13.9 22.6 0.00 0.00 0.00 32 1010.4
20260503203750 62 253 13.0 24.3 0.00 0.00 0.00 33 1010.3
20260503203704 62 323 12.2 24.3 0.00 0.00 0.00 33 1010.3
20260503202723 62 270 13.0 19.1 0.00 0.00 0.00 33 1010.3
20260503202215 62 279 12.2 19.1 0.00 0.00 0.00 34 1010.3
20260503201711 61 257 13.0 20.9 0.00 0.00 0.00 34 1010.3
20260503201434 61 301 13.0 20.9 0.00 0.00 0.00 34 1010.3
20260503201159 60 256 12.2 20.0 0.00 0.00 0.00 35 1010.6
20260503200155 60 258 13.0 20.0 0.00 0.00 0.00 34 1010.6
20260503195858 60 280 13.0 20.0 0.00 0.00 0.00 34 1010.6
20260503195112 61 266 13.9 21.7 0.00 0.00 0.00 37 1010.7